NOAA 16 DEB, 41426

Orbit data source: Space-Track

NOAA 16 DEB, 41426 is space debris in SSO originally from a launch on Thu, 21 Sep 2000 UTC launched from the Air Force Western Test Range (AFWTR). Debris objects in space refer to the collection of defunct objects orbiting the Earth. Examples of debris include non-operational satellites, rocket bodies, and fragments generated from explosions, collisions, or faulty payload assembly.

Loading next visibility...
Identifier
41426, 2000-055LF
Orbit
SSO
Country
Flag of USUS
Related business
Manufacturer
Unknown
Mission
Spacecraft
Bus & Motor
Unknown
Mass
Unknown
Launch date (UTC)
2000-09-21 (25 years ago)
Launch vehicle
Unknown
Launch site
Air Force Western Test Range (AFWTR)
Object type
Payload
Rocket body
Debris
Shape & HBR
Unknown shape, 0.1 m
Radar Cross Section
Small (<0.1 m²)

Expand to show TLE details & history
Last TLE update: 1 day ago

TLE from 1 day ago
0 NOAA 16 DEB
1 41426U 00055LF  25297.38189266  .00076846  00000-0  11186-1 0  9994
2 41426  98.8959  89.5323 0004944  38.4136 321.7421 14.75444973502569
Epoch: 2025-10-24T09:09Z
TLE epoch observation values (Epoch: 2025-10-24T09:09:55.525Z)
Latitude
-0.0001°
Longitude
-80.97664°
Altitude
643.997 km
Speed
7.537 km/s
True Right ascension
05h 58m 07s
True Declination
0° 00' 00"
Sunlit
Object was in full shadow at epoch
Visualization orbit readout
Latitude
Unknown
Longitude
Unknown
Altitude
Unknown
Speed
Unknown
Apparent Right ascension
Unknown
Apparent Declination
Unknown
Sunlit
N/A
Visualization observer readout
Local Sidereal Time
06:55:35
Azimuth
Unknown
Elevation
Unknown
Doppler factor
Unknown
Orbital elements
Apogee altitude
644.303 km
Perigee altitude
637.363 km
Semi-major axis
7,018.97 km
Eccentricity
0.00049
Inclination
98.8959°
RAAN
89.5323°
Arg. of periapsis
38.4136°
True anomaly
321.707°
Mean anomaly
321.7421°
Eccentric anomaly
321.72455°
Mean motion
3.69091 °/min
Orbital period
97.54 mins
BSTAR
0.011186
Loading maneuver chart data...
Computing Atmospheric mass density...

Documentation

Showing up to 5 results
|